Time,TemperatureF,DewpointF,PressureIn,WindDirection,WindDirectionDegrees,WindSpeedMPH,WindSpeedGustMPH,Humidity,HourlyPrecipIn,Conditions,Clouds,dailyrainin,SoftwareType,DateUTC
2013-12-23 00:01:00,31.8,27.5,30.33,NE,42,3.0,3.0,84,0.00,,,0.00,WeatherCatV1.15B25,2013-12-23 06:01:00,
2013-12-23 00:06:00,31.6,27.3,30.33,NE,40,6.0,9.0,84,0.00,,,0.00,WeatherCatV1.15B25,2013-12-23 06:06:00,
2013-12-23 00:11:00,31.5,27.2,30.33,NNE,17,2.0,10.0,84,0.00,,,0.00,WeatherCatV1.15B25,2013-12-23 06:11:00,
2013-12-23 00:16:00,31.4,27.1,30.33,NNE,32,2.0,6.0,84,0.00,,,0.00,WeatherCatV1.15B25,2013-12-23 06:16:00,
2013-12-23 00:21:00,31.3,27.0,30.33,NE,37,2.0,5.0,84,0.00,,,0.00,WeatherCatV1.15B25,2013-12-23 06:21:00,
2013-12-23 00:26:00,31.2,27.2,30.33,NE,37,1.0,3.0,85,0.00,,,0.00,WeatherCatV1.15B25,2013-12-23 06:26:00,
2013-12-23 00:31:00,31.1,27.1,30.33,NNE,17,2.0,4.0,85,0.00,,,0.00,WeatherCatV1.15B25,2013-12-23 06:31:00,
2013-12-23 00:36:00,31.0,27.0,30.33,NNE,23,6.0,6.0,85,0.00,,,0.00,WeatherCatV1.15B25,2013-12-23 06:36:00,
2013-12-23 00:41:00,30.8,26.8,30.33,NNE,13,2.0,8.0,85,0.00,,,0.00,WeatherCatV1.15B25,2013-12-23 06:41:00,
2013-12-23 00:46:00,30.7,26.7,30.33,NE,34,2.0,5.0,85,0.00,,,0.00,WeatherCatV1.15B25,2013-12-23 06:46:00,
2013-12-23 00:51:00,30.6,26.6,30.33,NNE,24,3.0,5.0,85,0.00,,,0.00,WeatherCatV1.15B25,2013-12-23 06:51:00,
2013-12-23 00:56:00,30.5,26.5,30.33,NNE,20,3.0,6.0,85,0.00,,,0.00,WeatherCatV1.15B25,2013-12-23 06:56:00,
2013-12-23 01:01:00,30.3,26.3,30.33,NE,54,2.0,5.0,85,0.00,,,0.00,WeatherCatV1.15B25,2013-12-23 07:01:00,
2013-12-23 01:06:00,30.2,26.2,30.33,NE,42,6.0,6.0,85,0.00,,,0.00,WeatherCatV1.15B25,2013-12-23 07:06:00,
2013-12-23 01:11:00,30.1,26.4,30.33,NE,36,5.0,7.0,86,0.00,,,0.00,WeatherCatV1.15B25,2013-12-23 07:11:00,
2013-12-23 01:16:00,29.9,26.2,30.33,NE,53,3.0,5.0,86,0.00,,,0.00,WeatherCatV1.15B25,2013-12-23 07:16:00,
2013-12-23 01:21:00,29.8,26.1,30.33,NNE,30,5.0,10.0,86,0.00,,,0.00,WeatherCatV1.15B25,2013-12-23 07:21:00,
2013-12-23 01:26:00,29.6,25.9,30.33,NNE,29,6.0,6.0,86,0.00,,,0.00,WeatherCatV1.15B25,2013-12-23 07:26:00,
2013-12-23 01:31:00,29.4,25.5,30.33,NNE,26,4.0,12.0,85,0.00,,,0.00,WeatherCatV1.15B25,2013-12-23 07:31:00,
2013-12-23 01:36:00,29.3,25.4,30.33,NNE,22,4.0,9.0,85,0.00,,,0.00,WeatherCatV1.15B25,2013-12-23 07:36:00,
2013-12-23 01:41:00,29.2,25.3,30.33,NNE,24,4.0,7.0,85,0.00,,,0.00,WeatherCatV1.15B25,2013-12-23 07:41:00,
2013-12-23 01:46:00,29.1,25.2,30.34,NE,38,3.0,7.0,85,0.00,,,0.00,WeatherCatV1.15B25,2013-12-23 07:46:00,
2013-12-23 01:51:00,29.0,25.1,30.34,North,355,6.0,9.0,85,0.00,,,0.00,WeatherCatV1.15B25,2013-12-23 07:51:00,
2013-12-23 01:56:00,29.0,25.1,30.34,NNE,22,3.0,7.0,85,0.00,,,0.00,WeatherCatV1.15B25,2013-12-23 07:56:00,
2013-12-23 02:01:00,29.0,25.1,30.34,NNE,27,3.0,4.0,85,0.00,,,0.00,WeatherCatV1.15B25,2013-12-23 08:01:00,
2013-12-23 02:06:00,29.0,25.1,30.34,NE,46,3.0,7.0,85,0.00,,,0.00,WeatherCatV1.15B25,2013-12-23 08:06:00,
2013-12-23 02:11:00,28.9,25.0,30.34,NNE,20,5.0,9.0,85,0.00,,,0.00,WeatherCatV1.15B25,2013-12-23 08:11:00,
2013-12-23 02:16:00,28.9,25.2,30.34,NNE,26,2.0,4.0,86,0.00,,,0.00,WeatherCatV1.15B25,2013-12-23 08:16:00,
2013-12-23 02:21:00,28.9,25.2,30.34,NNE,17,7.0,7.0,86,0.00,,,0.00,WeatherCatV1.15B25,2013-12-23 08:21:00,
2013-12-23 02:26:00,28.8,24.9,30.34,NE,34,2.0,5.0,85,0.00,,,0.00,WeatherCatV1.15B25,2013-12-23 08:26:00,
2013-12-23 02:31:00,28.8,24.9,30.35,NNE,32,4.0,11.0,85,0.00,,,0.00,WeatherCatV1.15B25,2013-12-23 08:31:00,
2013-12-23 02:36:00,28.7,24.8,30.35,NE,46,5.0,7.0,85,0.00,,,0.00,WeatherCatV1.15B25,2013-12-23 08:36:00,
2013-12-23 02:41:00,28.6,24.7,30.35,NNE,29,7.0,8.0,85,0.00,,,0.00,WeatherCatV1.15B25,2013-12-23 08:41:00,
2013-12-23 02:46:00,28.6,24.7,30.35,NE,39,3.0,6.0,85,0.00,,,0.00,WeatherCatV1.15B25,2013-12-23 08:46:00,
2013-12-23 02:51:00,28.6,24.7,30.35,NNE,22,6.0,6.0,85,0.00,,,0.00,WeatherCatV1.15B25,2013-12-23 08:51:00,
2013-12-23 02:56:00,28.6,24.7,30.35,NE,50,4.0,7.0,85,0.00,,,0.00,WeatherCatV1.15B25,2013-12-23 08:56:00,
2013-12-23 03:01:00,28.6,24.7,30.34,NE,40,6.0,10.0,85,0.00,,,0.00,WeatherCatV1.15B25,2013-12-23 09:01:00,
2013-12-23 03:06:00,28.6,25.0,30.34,NE,42,3.0,10.0,86,0.00,,,0.00,WeatherCatV1.15B25,2013-12-23 09:06:00,
2013-12-23 03:11:00,28.5,24.6,30.34,NNE,28,2.0,7.0,85,0.00,,,0.00,WeatherCatV1.15B25,2013-12-23 09:11:00,
2013-12-23 03:16:00,28.5,24.6,30.35,NE,34,3.0,6.0,85,0.00,,,0.00,WeatherCatV1.15B25,2013-12-23 09:16:00,
2013-12-23 03:21:00,28.4,24.8,30.35,NNE,22,2.0,5.0,86,0.00,,,0.00,WeatherCatV1.15B25,2013-12-23 09:21:00,
2013-12-23 03:26:00,28.4,24.8,30.35,NNE,20,3.0,4.0,86,0.00,,,0.00,WeatherCatV1.15B25,2013-12-23 09:26:00,
2013-12-23 03:31:00,28.4,24.8,30.35,NNE,20,3.0,6.0,86,0.00,,,0.00,WeatherCatV1.15B25,2013-12-23 09:31:00,
2013-12-23 03:36:00,28.3,24.7,30.35,NE,50,2.0,5.0,86,0.00,,,0.00,WeatherCatV1.15B25,2013-12-23 09:36:00,
2013-12-23 03:41:00,28.3,24.7,30.35,North,355,2.0,4.0,86,0.00,,,0.00,WeatherCatV1.15B25,2013-12-23 09:41:00,
2013-12-23 03:46:00,28.2,24.6,30.36,NE,46,1.0,3.0,86,0.00,,,0.00,WeatherCatV1.15B25,2013-12-23 09:46:00,
2013-12-23 03:51:00,28.1,24.5,30.36,North,11,1.0,2.0,86,0.00,,,0.00,WeatherCatV1.15B25,2013-12-23 09:51:00,
2013-12-23 03:56:00,28.1,24.2,30.36,NE,38,2.0,5.0,85,0.00,,,0.00,WeatherCatV1.15B25,2013-12-23 09:56:00,
2013-12-23 04:01:00,28.0,24.4,30.36,NE,34,2.0,2.0,86,0.00,,,0.00,WeatherCatV1.15B25,2013-12-23 10:01:00,
2013-12-23 04:06:00,28.0,24.4,30.36,NNE,15,1.0,3.0,86,0.00,,,0.00,WeatherCatV1.15B25,2013-12-23 10:06:00,
2013-12-23 04:11:00,27.9,24.3,30.36,NNE,15,1.0,2.0,86,0.00,,,0.00,WeatherCatV1.15B25,2013-12-23 10:11:00,
2013-12-23 04:16:00,27.9,24.3,30.37,NNE,26,2.0,2.0,86,0.00,,,0.00,WeatherCatV1.15B25,2013-12-23 10:16:00,
2013-12-23 04:21:00,27.8,24.2,30.37,NE,47,2.0,2.0,86,0.00,,,0.00,WeatherCatV1.15B25,2013-12-23 10:21:00,
2013-12-23 04:26:00,27.7,24.1,30.37,NE,34,1.0,2.0,86,0.00,,,0.00,WeatherCatV1.15B25,2013-12-23 10:26:00,
2013-12-23 04:31:00,27.6,24.0,30.37,NNE,24,2.0,3.0,86,0.00,,,0.00,WeatherCatV1.15B25,2013-12-23 10:31:00,
2013-12-23 04:36:00,27.6,24.2,30.37,NNE,29,1.0,2.0,87,0.00,,,0.00,WeatherCatV1.15B25,2013-12-23 10:36:00,
2013-12-23 04:41:00,27.5,24.1,30.37,NNE,27,1.0,1.0,87,0.00,,,0.00,WeatherCatV1.15B25,2013-12-23 10:41:00,
2013-12-23 04:46:00,27.4,24.0,30.38,NNE,21,2.0,3.0,87,0.00,,,0.00,WeatherCatV1.15B25,2013-12-23 10:46:00,
2013-12-23 04:51:00,27.4,24.0,30.38,North,355,4.0,5.0,87,0.00,,,0.00,WeatherCatV1.15B25,2013-12-23 10:51:00,
2013-12-23 04:56:00,27.3,24.0,30.38,NNE,15,2.0,3.0,87,0.00,,,0.00,WeatherCatV1.15B25,2013-12-23 10:56:00,
2013-12-23 05:01:00,27.3,24.0,30.38,NNE,13,1.0,2.0,87,0.00,,,0.00,WeatherCatV1.15B25,2013-12-23 11:01:00,
2013-12-23 05:06:00,27.3,24.0,30.38,North,0,1.0,4.0,87,0.00,,,0.00,WeatherCatV1.15B25,2013-12-23 11:06:00,
2013-12-23 05:11:00,27.2,23.9,30.38,North,9,2.0,3.0,87,0.00,,,0.00,WeatherCatV1.15B25,2013-12-23 11:11:00,
2013-12-23 05:16:00,27.2,23.9,30.38,North,9,1.0,2.0,87,0.00,,,0.00,WeatherCatV1.15B25,2013-12-23 11:16:00,
2013-12-23 05:21:00,27.2,24.1,30.38,NNE,22,1.0,4.0,88,0.00,,,0.00,WeatherCatV1.15B25,2013-12-23 11:21:00,
2013-12-23 05:26:00,27.2,24.1,30.38,NNE,24,2.0,5.0,88,0.00,,,0.00,WeatherCatV1.15B25,2013-12-23 11:26:00,
2013-12-23 05:31:00,27.2,24.1,30.39,NE,41,2.0,4.0,88,0.00,,,0.00,WeatherCatV1.15B25,2013-12-23 11:31:00,
2013-12-23 05:36:00,27.2,24.1,30.39,NNE,28,2.0,3.0,88,0.00,,,0.00,WeatherCatV1.15B25,2013-12-23 11:36:00,
2013-12-23 05:41:00,27.2,24.1,30.39,NE,36,2.0,4.0,88,0.00,,,0.00,WeatherCatV1.15B25,2013-12-23 11:41:00,
2013-12-23 05:46:00,27.2,24.1,30.39,NNE,32,2.0,3.0,88,0.00,,,0.00,WeatherCatV1.15B25,2013-12-23 11:46:00,
2013-12-23 05:51:00,27.2,24.1,30.39,NNE,32,1.0,2.0,88,0.00,,,0.00,WeatherCatV1.15B25,2013-12-23 11:51:00,
2013-12-23 05:56:00,27.2,24.1,30.39,NNE,32,1.0,2.0,88,0.00,,,0.00,WeatherCatV1.15B25,2013-12-23 11:56:00,
2013-12-23 06:01:00,27.1,24.0,30.40,NE,34,2.0,3.0,88,0.00,,,0.00,WeatherCatV1.15B25,2013-12-23 12:01:00,
2013-12-23 06:06:00,27.0,23.9,30.40,NE,34,1.0,1.0,88,0.00,,,0.00,WeatherCatV1.15B25,2013-12-23 12:06:00,
2013-12-23 06:11:00,27.0,23.9,30.40,NE,34,1.0,2.0,88,0.00,,,0.00,WeatherCatV1.15B25,2013-12-23 12:11:00,
2013-12-23 06:16:00,27.0,23.9,30.40,NE,34,0.0,2.0,88,0.00,,,0.00,WeatherCatV1.15B25,2013-12-23 12:16:00,
2013-12-23 06:21:00,26.9,23.8,30.40,NE,34,1.0,2.0,88,0.00,,,0.00,WeatherCatV1.15B25,2013-12-23 12:21:00,
2013-12-23 06:26:00,26.9,23.8,30.40,NE,34,2.0,2.0,88,0.00,,,0.00,WeatherCatV1.15B25,2013-12-23 12:26:00,
2013-12-23 06:31:00,27.0,24.2,30.41,NE,34,2.0,2.0,89,0.00,,,0.00,WeatherCatV1.15B25,2013-12-23 12:31:00,
2013-12-23 06:36:00,27.0,24.5,30.41,NNE,26,1.0,2.0,90,0.00,,,0.00,WeatherCatV1.15B25,2013-12-23 12:36:00,
2013-12-23 06:41:00,27.1,24.6,30.41,NNE,26,1.0,3.0,90,0.00,,,0.00,WeatherCatV1.15B25,2013-12-23 12:41:00,
2013-12-23 06:46:00,27.2,24.7,30.41,NNE,26,1.0,2.0,90,0.00,,,0.00,WeatherCatV1.15B25,2013-12-23 12:46:00,
2013-12-23 06:51:00,27.3,25.0,30.41,NNE,32,1.0,3.0,91,0.00,,,0.00,WeatherCatV1.15B25,2013-12-23 12:51:00,
2013-12-23 06:56:00,27.4,25.1,30.41,NNE,16,1.0,3.0,91,0.00,,,0.00,WeatherCatV1.15B25,2013-12-23 12:56:00,
2013-12-23 07:01:00,27.5,25.2,30.41,NNE,27,2.0,7.0,91,0.00,,,0.00,WeatherCatV1.15B25,2013-12-23 13:01:00,
2013-12-23 07:06:00,27.7,25.4,30.41,North,355,1.0,4.0,91,0.00,,,0.00,WeatherCatV1.15B25,2013-12-23 13:06:00,
2013-12-23 07:11:00,27.9,25.6,30.41,NNW,337,1.0,5.0,91,0.00,,,0.00,WeatherCatV1.15B25,2013-12-23 13:11:00,
2013-12-23 07:16:00,28.1,25.8,30.43,NNW,342,5.0,8.0,91,0.00,,,0.00,WeatherCatV1.15B25,2013-12-23 13:16:00,
2013-12-23 07:21:00,28.2,25.7,30.43,NW,319,3.0,4.0,90,0.00,,,0.00,WeatherCatV1.15B25,2013-12-23 13:21:00,
2013-12-23 07:26:00,28.3,25.8,30.43,North,351,3.0,4.0,90,0.00,,,0.00,WeatherCatV1.15B25,2013-12-23 13:26:00,
2013-12-23 07:31:00,28.3,25.5,30.43,NNW,345,4.0,5.0,89,0.00,,,0.00,WeatherCatV1.15B25,2013-12-23 13:31:00,
2013-12-23 07:36:00,28.3,25.5,30.43,NNW,346,4.0,7.0,89,0.00,,,0.00,WeatherCatV1.15B25,2013-12-23 13:36:00,
2013-12-23 07:41:00,28.3,25.5,30.43,NNW,347,3.0,5.0,89,0.00,,,0.00,WeatherCatV1.15B25,2013-12-23 13:41:00,
2013-12-23 07:46:00,28.3,25.5,30.44,North,0,3.0,6.0,89,0.00,,,0.00,WeatherCatV1.15B25,2013-12-23 13:46:00,
2013-12-23 07:51:00,28.3,25.5,30.44,North,0,2.0,5.0,89,0.00,,,0.00,WeatherCatV1.15B25,2013-12-23 13:51:00,
2013-12-23 07:56:00,28.4,25.6,30.44,NNE,22,5.0,5.0,89,0.00,,,0.00,WeatherCatV1.15B25,2013-12-23 13:56:00,
2013-12-23 08:01:00,28.5,25.9,30.44,NNW,335,2.0,6.0,90,0.00,,,0.00,WeatherCatV1.15B25,2013-12-23 14:01:00,
2013-12-23 08:06:00,28.6,26.0,30.44,NNE,23,2.0,5.0,90,0.00,,,0.00,WeatherCatV1.15B25,2013-12-23 14:06:00,
2013-12-23 08:11:00,28.7,26.1,30.44,NNE,28,2.0,7.0,90,0.00,,,0.00,WeatherCatV1.15B25,2013-12-23 14:11:00,
2013-12-23 08:16:00,28.7,26.1,30.45,NNE,22,3.0,6.0,90,0.00,,,0.00,WeatherCatV1.15B25,2013-12-23 14:16:00,
2013-12-23 08:21:00,28.8,26.0,30.45,NE,45,4.0,6.0,89,0.00,,,0.00,WeatherCatV1.15B25,2013-12-23 14:21:00,
2013-12-23 08:26:00,28.9,26.1,30.45,NE,42,2.0,5.0,89,0.00,,,0.00,WeatherCatV1.15B25,2013-12-23 14:26:00,
2013-12-23 08:31:00,29.0,26.2,30.45,North,355,2.0,4.0,89,0.00,,,0.00,WeatherCatV1.15B25,2013-12-23 14:31:00,
2013-12-23 08:36:00,29.2,26.4,30.45,NNW,329,5.0,5.0,89,0.00,,,0.00,WeatherCatV1.15B25,2013-12-23 14:36:00,
2013-12-23 08:41:00,29.4,26.6,30.45,NNE,23,3.0,6.0,89,0.00,,,0.00,WeatherCatV1.15B25,2013-12-23 14:41:00,
2013-12-23 08:46:00,29.7,26.6,30.46,North,355,5.0,7.0,88,0.00,,,0.00,WeatherCatV1.15B25,2013-12-23 14:46:00,
2013-12-23 08:51:00,29.9,26.8,30.46,NE,40,3.0,6.0,88,0.00,,,0.00,WeatherCatV1.15B25,2013-12-23 14:51:00,
2013-12-23 08:56:00,30.1,27.0,30.46,NNE,15,4.0,11.0,88,0.00,,,0.00,WeatherCatV1.15B25,2013-12-23 14:56:00,
2013-12-23 09:01:00,30.4,27.0,30.46,North,9,4.0,10.0,87,0.00,,,0.00,WeatherCatV1.15B25,2013-12-23 15:01:00,
2013-12-23 09:06:00,30.5,27.1,30.46,North,351,4.0,9.0,87,0.00,,,0.00,WeatherCatV1.15B25,2013-12-23 15:06:00,
2013-12-23 09:11:00,30.7,27.3,30.46,NE,49,1.0,3.0,87,0.00,,,0.00,WeatherCatV1.15B25,2013-12-23 15:11:00,
2013-12-23 09:16:00,31.0,27.3,30.47,North,11,4.0,7.0,86,0.00,,,0.00,WeatherCatV1.15B25,2013-12-23 15:16:00,
2013-12-23 09:21:00,31.1,27.1,30.47,NE,44,5.0,5.0,85,0.00,,,0.00,WeatherCatV1.15B25,2013-12-23 15:21:00,
2013-12-23 09:26:00,31.3,27.3,30.47,NE,43,5.0,10.0,85,0.00,,,0.00,WeatherCatV1.15B25,2013-12-23 15:26:00,
2013-12-23 09:31:00,31.5,27.5,30.47,NE,46,4.0,7.0,85,0.00,,,0.00,WeatherCatV1.15B25,2013-12-23 15:31:00,
2013-12-23 09:36:00,31.9,27.6,30.47,NNE,30,4.0,8.0,84,0.00,,,0.00,WeatherCatV1.15B25,2013-12-23 15:36:00,
2013-12-23 09:41:00,32.2,27.6,30.47,NNE,27,4.0,10.0,83,0.00,,,0.00,WeatherCatV1.15B25,2013-12-23 15:41:00,
2013-12-23 09:46:00,32.5,27.9,30.46,NE,42,6.0,7.0,83,0.00,,,0.00,WeatherCatV1.15B25,2013-12-23 15:46:00,
2013-12-23 09:51:00,32.8,27.9,30.46,North,5,5.0,6.0,82,0.00,,,0.00,WeatherCatV1.15B25,2013-12-23 15:51:00,
2013-12-23 09:56:00,33.2,28.0,30.46,NNE,15,4.0,10.0,81,0.00,,,0.00,WeatherCatV1.15B25,2013-12-23 15:56:00,
2013-12-23 10:01:00,33.4,28.2,30.47,NE,34,6.0,11.0,81,0.00,,,0.00,WeatherCatV1.15B25,2013-12-23 16:01:00,
2013-12-23 10:06:00,33.6,28.1,30.47,NE,34,3.0,7.0,80,0.00,,,0.00,WeatherCatV1.15B25,2013-12-23 16:06:00,
2013-12-23 10:11:00,33.9,28.4,30.47,NE,55,2.0,5.0,80,0.00,,,0.00,WeatherCatV1.15B25,2013-12-23 16:11:00,
2013-12-23 10:16:00,34.3,28.8,30.47,NE,44,4.0,8.0,80,0.00,,,0.00,WeatherCatV1.15B25,2013-12-23 16:16:00,
2013-12-23 10:21:00,34.5,28.7,30.47,NNE,14,3.0,5.0,79,0.00,,,0.00,WeatherCatV1.15B25,2013-12-23 16:21:00,
2013-12-23 10:26:00,34.7,28.9,30.47,East,94,3.0,5.0,79,0.00,,,0.00,WeatherCatV1.15B25,2013-12-23 16:26:00,
2013-12-23 10:31:00,35.0,28.8,30.47,NE,56,5.0,6.0,78,0.00,,,0.00,WeatherCatV1.15B25,2013-12-23 16:31:00,
2013-12-23 10:36:00,35.2,29.0,30.47,NE,50,1.0,7.0,78,0.00,,,0.00,WeatherCatV1.15B25,2013-12-23 16:36:00,
2013-12-23 10:41:00,35.6,29.1,30.47,ENE,62,4.0,4.0,77,0.00,,,0.00,WeatherCatV1.15B25,2013-12-23 16:41:00,
2013-12-23 10:46:00,35.8,29.0,30.47,NE,51,4.0,6.0,76,0.00,,,0.00,WeatherCatV1.15B25,2013-12-23 16:46:00,
2013-12-23 10:51:00,36.2,29.7,30.47,NE,39,3.0,5.0,77,0.00,,,0.00,WeatherCatV1.15B25,2013-12-23 16:51:00,
2013-12-23 10:56:00,36.6,29.4,30.47,ESE,106,2.0,4.0,75,0.00,,,0.00,WeatherCatV1.15B25,2013-12-23 16:56:00,
2013-12-23 11:01:00,37.1,29.9,30.47,East,94,1.0,4.0,75,0.00,,,0.00,WeatherCatV1.15B25,2013-12-23 17:01:00,
2013-12-23 11:06:00,37.5,30.3,30.47,NE,35,2.0,7.0,75,0.00,,,0.00,WeatherCatV1.15B25,2013-12-23 17:06:00,
2013-12-23 11:11:00,38.0,30.1,30.47,NNW,348,3.0,3.0,73,0.00,,,0.00,WeatherCatV1.15B25,2013-12-23 17:11:00,
2013-12-23 11:16:00,38.9,31.0,30.48,NE,40,3.0,6.0,73,0.00,,,0.00,WeatherCatV1.15B25,2013-12-23 17:16:00,
2013-12-23 11:21:00,39.6,31.0,30.48,NNE,30,2.0,3.0,71,0.00,,,0.00,WeatherCatV1.15B25,2013-12-23 17:21:00,
2013-12-23 11:26:00,40.3,31.3,30.48,East,79,2.0,3.0,70,0.00,,,0.00,WeatherCatV1.15B25,2013-12-23 17:26:00,
2013-12-23 11:31:00,40.9,31.5,30.47,NE,49,3.0,4.0,69,0.00,,,0.00,WeatherCatV1.15B25,2013-12-23 17:31:00,
2013-12-23 11:36:00,41.5,31.4,30.47,NE,49,2.0,4.0,67,0.00,,,0.00,WeatherCatV1.15B25,2013-12-23 17:36:00,
2013-12-23 11:41:00,42.0,32.2,30.47,NNE,20,4.0,5.0,68,0.00,,,0.00,WeatherCatV1.15B25,2013-12-23 17:41:00,
2013-12-23 11:46:00,42.3,32.1,30.47,North,350,4.0,5.0,67,0.00,,,0.00,WeatherCatV1.15B25,2013-12-23 17:46:00,
2013-12-23 11:51:00,42.4,32.6,30.47,North,5,4.0,7.0,68,0.00,,,0.00,WeatherCatV1.15B25,2013-12-23 17:51:00,
2013-12-23 11:56:00,42.6,32.4,30.47,NNW,348,3.0,6.0,67,0.00,,,0.00,WeatherCatV1.15B25,2013-12-23 17:56:00,
2013-12-23 12:01:00,42.9,33.1,30.47,NNW,345,4.0,6.0,68,0.00,,,0.00,WeatherCatV1.15B25,2013-12-23 18:01:00,
2013-12-23 12:06:00,43.1,32.9,30.47,North,355,4.0,5.0,67,0.00,,,0.00,WeatherCatV1.15B25,2013-12-23 18:06:00,
2013-12-23 12:11:00,43.2,33.0,30.47,NNE,13,3.0,6.0,67,0.00,,,0.00,WeatherCatV1.15B25,2013-12-23 18:11:00,
2013-12-23 12:16:00,43.3,33.1,30.46,NW,315,5.0,6.0,67,0.00,,,0.00,WeatherCatV1.15B25,2013-12-23 18:16:00,
2013-12-23 12:21:00,43.3,32.7,30.46,WNW,296,3.0,6.0,66,0.00,,,0.00,WeatherCatV1.15B25,2013-12-23 18:21:00,
2013-12-23 12:26:00,43.5,33.3,30.46,NW,316,4.0,9.0,67,0.00,,,0.00,WeatherCatV1.15B25,2013-12-23 18:26:00,
2013-12-23 12:31:00,43.7,33.5,30.45,NW,320,2.0,6.0,67,0.00,,,0.00,WeatherCatV1.15B25,2013-12-23 18:31:00,
2013-12-23 12:36:00,44.1,33.5,30.45,West,273,1.0,5.0,66,0.00,,,0.00,WeatherCatV1.15B25,2013-12-23 18:36:00,
2013-12-23 12:41:00,44.3,33.3,30.45,NNE,30,4.0,5.0,65,0.00,,,0.00,WeatherCatV1.15B25,2013-12-23 18:41:00,
2013-12-23 12:46:00,44.5,33.9,30.44,NW,321,3.0,6.0,66,0.00,,,0.00,WeatherCatV1.15B25,2013-12-23 18:46:00,
2013-12-23 12:51:00,44.7,33.7,30.44,NNW,329,3.0,4.0,65,0.00,,,0.00,WeatherCatV1.15B25,2013-12-23 18:51:00,
2013-12-23 12:56:00,44.8,33.8,30.44,NW,321,3.0,4.0,65,0.00,,,0.00,WeatherCatV1.15B25,2013-12-23 18:56:00,
2013-12-23 13:01:00,45.1,33.7,30.44,NE,34,0.0,4.0,64,0.00,,,0.00,WeatherCatV1.15B25,2013-12-23 19:01:00,
2013-12-23 13:06:00,45.4,34.7,30.44,NW,305,3.0,5.0,66,0.00,,,0.00,WeatherCatV1.15B25,2013-12-23 19:06:00,
2013-12-23 13:11:00,45.6,34.5,30.44,NW,318,4.0,4.0,65,0.00,,,0.00,WeatherCatV1.15B25,2013-12-23 19:11:00,
2013-12-23 13:16:00,45.8,34.7,30.43,NW,323,3.0,4.0,65,0.00,,,0.00,WeatherCatV1.15B25,2013-12-23 19:16:00,
2013-12-23 13:21:00,45.8,34.3,30.43,WNW,293,3.0,6.0,64,0.00,,,0.00,WeatherCatV1.15B25,2013-12-23 19:21:00,
2013-12-23 13:26:00,45.9,34.8,30.43,WNW,291,3.0,5.0,65,0.00,,,0.00,WeatherCatV1.15B25,2013-12-23 19:26:00,
2013-12-23 13:31:00,46.1,35.0,30.43,WNW,288,2.0,2.0,65,0.00,,,0.00,WeatherCatV1.15B25,2013-12-23 19:31:00,
2013-12-23 13:36:00,46.5,35.0,30.43,North,5,0.0,5.0,64,0.00,,,0.00,WeatherCatV1.15B25,2013-12-23 19:36:00,
2013-12-23 13:41:00,46.7,34.4,30.43,NW,322,2.0,3.0,62,0.00,,,0.00,WeatherCatV1.15B25,2013-12-23 19:41:00,
2013-12-23 13:46:00,46.8,34.1,30.42,WNW,294,1.0,4.0,61,0.00,,,0.00,WeatherCatV1.15B25,2013-12-23 19:46:00,
2013-12-23 13:51:00,47.0,35.1,30.42,NW,317,2.0,4.0,63,0.00,,,0.00,WeatherCatV1.15B25,2013-12-23 19:51:00,
2013-12-23 13:56:00,47.3,35.3,30.42,WNW,300,2.0,4.0,63,0.00,,,0.00,WeatherCatV1.15B25,2013-12-23 19:56:00,
2013-12-23 14:01:00,47.3,34.5,30.43,NW,317,4.0,5.0,61,0.00,,,0.00,WeatherCatV1.15B25,2013-12-23 20:01:00,
2013-12-23 14:06:00,47.3,34.5,30.43,NNW,339,2.0,3.0,61,0.00,,,0.00,WeatherCatV1.15B25,2013-12-23 20:06:00,
2013-12-23 14:11:00,47.2,34.0,30.43,NNW,331,2.0,5.0,60,0.00,,,0.00,WeatherCatV1.15B25,2013-12-23 20:11:00,
2013-12-23 14:16:00,47.2,34.4,30.42,NW,323,3.0,5.0,61,0.00,,,0.00,WeatherCatV1.15B25,2013-12-23 20:16:00,
2013-12-23 14:21:00,47.3,34.1,30.42,North,355,3.0,4.0,60,0.00,,,0.00,WeatherCatV1.15B25,2013-12-23 20:21:00,
2013-12-23 14:26:00,47.4,34.2,30.42,NNE,25,1.0,5.0,60,0.00,,,0.00,WeatherCatV1.15B25,2013-12-23 20:26:00,
2013-12-23 14:31:00,47.6,33.6,30.42,NNW,345,2.0,4.0,58,0.00,,,0.00,WeatherCatV1.15B25,2013-12-23 20:31:00,
2013-12-23 14:36:00,47.6,34.0,30.42,WNW,290,3.0,6.0,59,0.00,,,0.00,WeatherCatV1.15B25,2013-12-23 20:36:00,
2013-12-23 14:41:00,47.6,34.4,30.42,North,355,3.0,3.0,60,0.00,,,0.00,WeatherCatV1.15B25,2013-12-23 20:41:00,
2013-12-23 14:46:00,47.6,34.0,30.42,North,11,4.0,4.0,59,0.00,,,0.00,WeatherCatV1.15B25,2013-12-23 20:46:00,
2013-12-23 14:51:00,47.7,34.5,30.42,NW,325,2.0,4.0,60,0.00,,,0.00,WeatherCatV1.15B25,2013-12-23 20:51:00,
2013-12-23 14:56:00,47.7,33.7,30.42,NNW,327,2.0,4.0,58,0.00,,,0.00,WeatherCatV1.15B25,2013-12-23 20:56:00,
2013-12-23 15:01:00,47.3,33.3,30.43,North,0,2.0,4.0,58,0.00,,,0.00,WeatherCatV1.15B25,2013-12-23 21:01:00,
2013-12-23 15:06:00,47.3,33.3,30.43,NNW,333,2.0,4.0,58,0.00,,,0.00,WeatherCatV1.15B25,2013-12-23 21:06:00,
2013-12-23 15:11:00,47.3,33.3,30.43,North,350,1.0,4.0,58,0.00,,,0.00,WeatherCatV1.15B25,2013-12-23 21:11:00,
2013-12-23 15:16:00,47.1,33.1,30.42,West,277,2.0,4.0,58,0.00,,,0.00,WeatherCatV1.15B25,2013-12-23 21:16:00,
2013-12-23 15:21:00,47.2,34.0,30.42,WNW,284,2.0,5.0,60,0.00,,,0.00,WeatherCatV1.15B25,2013-12-23 21:21:00,
2013-12-23 15:26:00,47.1,33.5,30.42,West,281,2.0,5.0,59,0.00,,,0.00,WeatherCatV1.15B25,2013-12-23 21:26:00,
2013-12-23 15:31:00,47.0,33.8,30.43,NW,323,2.0,5.0,60,0.00,,,0.00,WeatherCatV1.15B25,2013-12-23 21:31:00,
2013-12-23 15:36:00,47.0,33.8,30.43,NNE,15,2.0,2.0,60,0.00,,,0.00,WeatherCatV1.15B25,2013-12-23 21:36:00,
2013-12-23 15:41:00,46.9,33.8,30.43,North,5,2.0,2.0,60,0.00,,,0.00,WeatherCatV1.15B25,2013-12-23 21:41:00,
2013-12-23 15:46:00,47.0,33.8,30.43,NNW,333,1.0,2.0,60,0.00,,,0.00,WeatherCatV1.15B25,2013-12-23 21:46:00,
2013-12-23 15:51:00,46.9,33.3,30.43,NNW,334,2.0,3.0,59,0.00,,,0.00,WeatherCatV1.15B25,2013-12-23 21:51:00,
2013-12-23 15:56:00,46.7,34.0,30.43,North,0,0.0,3.0,61,0.00,,,0.00,WeatherCatV1.15B25,2013-12-23 21:56:00,
2013-12-23 16:01:00,46.4,33.3,30.43,NNE,18,2.0,4.0,60,0.00,,,0.00,WeatherCatV1.15B25,2013-12-23 22:01:00,
2013-12-23 16:06:00,46.1,33.0,30.43,NNW,343,2.0,5.0,60,0.00,,,0.00,WeatherCatV1.15B25,2013-12-23 22:06:00,
2013-12-23 16:11:00,46.0,33.3,30.43,North,5,3.0,5.0,61,0.00,,,0.00,WeatherCatV1.15B25,2013-12-23 22:11:00,
2013-12-23 16:16:00,45.8,33.1,30.43,NW,320,3.0,4.0,61,0.00,,,0.00,WeatherCatV1.15B25,2013-12-23 22:16:00,
2013-12-23 16:21:00,45.6,33.7,30.43,WNW,285,3.0,4.0,63,0.00,,,0.00,WeatherCatV1.15B25,2013-12-23 22:21:00,
2013-12-23 16:26:00,45.4,33.2,30.43,NW,325,3.0,4.0,62,0.00,,,0.00,WeatherCatV1.15B25,2013-12-23 22:26:00,
2013-12-23 16:31:00,45.2,33.0,30.44,NNE,12,1.0,4.0,62,0.00,,,0.00,WeatherCatV1.15B25,2013-12-23 22:31:00,
2013-12-23 16:36:00,45.1,32.9,30.44,NNE,12,3.0,5.0,62,0.00,,,0.00,WeatherCatV1.15B25,2013-12-23 22:36:00,
2013-12-23 16:41:00,44.9,32.7,30.44,North,355,4.0,5.0,62,0.00,,,0.00,WeatherCatV1.15B25,2013-12-23 22:41:00,
2013-12-23 16:46:00,44.8,33.0,30.44,NNW,336,2.0,3.0,63,0.00,,,0.00,WeatherCatV1.15B25,2013-12-23 22:46:00,
2013-12-23 16:51:00,44.6,32.4,30.44,North,11,2.0,5.0,62,0.00,,,0.00,WeatherCatV1.15B25,2013-12-23 22:51:00,
2013-12-23 16:56:00,44.4,32.2,30.44,NNE,29,1.0,5.0,62,0.00,,,0.00,WeatherCatV1.15B25,2013-12-23 22:56:00,
2013-12-23 17:02:00,44.3,32.5,30.44,North,355,2.0,2.0,63,0.00,,,0.00,WeatherCatV1.15B25,2013-12-23 23:02:00,
2013-12-23 17:07:00,44.1,32.3,30.44,NNE,16,1.0,4.0,63,0.00,,,0.00,WeatherCatV1.15B25,2013-12-23 23:07:00,
2013-12-23 17:12:00,43.8,32.0,30.44,North,5,4.0,5.0,63,0.00,,,0.00,WeatherCatV1.15B25,2013-12-23 23:12:00,
2013-12-23 17:17:00,43.5,32.1,30.44,NNE,19,3.0,6.0,64,0.00,,,0.00,WeatherCatV1.15B25,2013-12-23 23:17:00,
2013-12-23 17:22:00,43.3,32.0,30.44,North,11,1.0,4.0,64,0.00,,,0.00,WeatherCatV1.15B25,2013-12-23 23:22:00,
2013-12-23 17:27:00,43.0,32.4,30.44,NNE,24,2.0,3.0,66,0.00,,,0.00,WeatherCatV1.15B25,2013-12-23 23:27:00,
2013-12-23 17:32:00,42.5,32.3,30.44,NNE,24,2.0,2.0,67,0.00,,,0.00,WeatherCatV1.15B25,2013-12-23 23:32:00,
2013-12-23 17:37:00,42.1,32.3,30.44,NNE,24,2.0,2.0,68,0.00,,,0.00,WeatherCatV1.15B25,2013-12-23 23:37:00,
2013-12-23 17:42:00,41.7,31.9,30.44,NNE,23,1.0,2.0,68,0.00,,,0.00,WeatherCatV1.15B25,2013-12-23 23:42:00,
2013-12-23 17:47:00,41.4,32.0,30.45,NNE,24,1.0,2.0,69,0.00,,,0.00,WeatherCatV1.15B25,2013-12-23 23:47:00,
2013-12-23 17:52:00,41.0,32.0,30.45,NNE,24,1.0,1.0,70,0.00,,,0.00,WeatherCatV1.15B25,2013-12-23 23:52:00,
2013-12-23 17:57:00,40.7,31.7,30.45,NNE,19,1.0,1.0,70,0.00,,,0.00,WeatherCatV1.15B25,2013-12-23 23:57:00,
2013-12-23 18:02:00,40.3,31.7,30.45,NNE,19,0.0,1.0,71,0.00,,,0.00,WeatherCatV1.15B25,2013-12-24 00:02:00,
2013-12-23 18:07:00,40.0,31.7,30.45,NNE,19,1.0,1.0,72,0.00,,,0.00,WeatherCatV1.15B25,2013-12-24 00:07:00,
2013-12-23 18:12:00,39.7,31.8,30.45,NNE,19,0.0,1.0,73,0.00,,,0.00,WeatherCatV1.15B25,2013-12-24 00:12:00,
2013-12-23 18:17:00,39.5,31.9,30.45,NNE,19,0.0,1.0,74,0.00,,,0.00,WeatherCatV1.15B25,2013-12-24 00:17:00,
2013-12-23 18:22:00,39.1,31.5,30.45,NNE,19,0.0,0.0,74,0.00,,,0.00,WeatherCatV1.15B25,2013-12-24 00:22:00,
2013-12-23 18:27:00,38.8,31.2,30.45,NNE,19,0.0,0.0,74,0.00,,,0.00,WeatherCatV1.15B25,2013-12-24 00:27:00,
2013-12-23 18:32:00,38.5,31.3,30.46,NNE,19,0.0,0.0,75,0.00,,,0.00,WeatherCatV1.15B25,2013-12-24 00:32:00,
2013-12-23 18:37:00,38.2,31.0,30.46,NNE,19,0.0,0.0,75,0.00,,,0.00,WeatherCatV1.15B25,2013-12-24 00:37:00,
2013-12-23 18:42:00,37.9,31.0,30.46,NNE,19,0.0,1.0,76,0.00,,,0.00,WeatherCatV1.15B25,2013-12-24 00:42:00,
2013-12-23 18:47:00,37.5,30.6,30.46,NNE,19,0.0,0.0,76,0.00,,,0.00,WeatherCatV1.15B25,2013-12-24 00:47:00,
2013-12-23 18:52:00,37.2,30.7,30.46,NNE,19,0.0,1.0,77,0.00,,,0.00,WeatherCatV1.15B25,2013-12-24 00:52:00,
2013-12-23 18:57:00,36.9,30.4,30.46,NNE,19,0.0,0.0,77,0.00,,,0.00,WeatherCatV1.15B25,2013-12-24 00:57:00,
2013-12-23 19:02:00,36.6,30.4,30.47,NNE,19,0.0,1.0,78,0.00,,,0.00,WeatherCatV1.15B25,2013-12-24 01:02:00,
2013-12-23 19:07:00,36.3,30.4,30.47,NNE,22,0.0,1.0,79,0.00,,,0.00,WeatherCatV1.15B25,2013-12-24 01:07:00,
2013-12-23 19:12:00,36.1,30.2,30.47,NNE,22,0.0,1.0,79,0.00,,,0.00,WeatherCatV1.15B25,2013-12-24 01:12:00,
2013-12-23 19:17:00,35.9,30.3,30.47,NNE,22,0.0,0.0,80,0.00,,,0.00,WeatherCatV1.15B25,2013-12-24 01:17:00,
2013-12-23 19:22:00,35.7,30.1,30.47,NNE,22,0.0,0.0,80,0.00,,,0.00,WeatherCatV1.15B25,2013-12-24 01:22:00,
2013-12-23 19:27:00,35.5,30.0,30.47,NNE,22,1.0,1.0,80,0.00,,,0.00,WeatherCatV1.15B25,2013-12-24 01:27:00,
2013-12-23 19:32:00,35.3,29.8,30.48,NNE,22,2.0,2.0,80,0.00,,,0.00,WeatherCatV1.15B25,2013-12-24 01:32:00,
2013-12-23 19:37:00,35.1,29.9,30.48,NE,34,2.0,3.0,81,0.00,,,0.00,WeatherCatV1.15B25,2013-12-24 01:37:00,
2013-12-23 19:42:00,34.9,29.7,30.48,NNE,28,2.0,4.0,81,0.00,,,0.00,WeatherCatV1.15B25,2013-12-24 01:42:00,
2013-12-23 19:47:00,34.7,29.8,30.48,NE,36,2.0,2.0,82,0.00,,,0.00,WeatherCatV1.15B25,2013-12-24 01:47:00,
2013-12-23 19:52:00,34.6,29.7,30.48,NE,36,1.0,3.0,82,0.00,,,0.00,WeatherCatV1.15B25,2013-12-24 01:52:00,
2013-12-23 19:57:00,34.4,29.5,30.48,NNE,33,2.0,4.0,82,0.00,,,0.00,WeatherCatV1.15B25,2013-12-24 01:57:00,
2013-12-23 20:02:00,34.4,29.8,30.49,NNE,28,3.0,4.0,83,0.00,,,0.00,WeatherCatV1.15B25,2013-12-24 02:02:00,
2013-12-23 20:07:00,34.4,29.8,30.49,NE,40,4.0,4.0,83,0.00,,,0.00,WeatherCatV1.15B25,2013-12-24 02:07:00,
2013-12-23 20:12:00,34.4,29.5,30.49,NE,41,2.0,4.0,82,0.00,,,0.00,WeatherCatV1.15B25,2013-12-24 02:12:00,
2013-12-23 20:17:00,34.5,29.6,30.49,NE,36,2.0,3.0,82,0.00,,,0.00,WeatherCatV1.15B25,2013-12-24 02:17:00,
2013-12-23 20:22:00,34.6,29.4,30.49,NE,36,2.0,4.0,81,0.00,,,0.00,WeatherCatV1.15B25,2013-12-24 02:22:00,
2013-12-23 20:27:00,34.7,29.5,30.49,ENE,59,2.0,6.0,81,0.00,,,0.00,WeatherCatV1.15B25,2013-12-24 02:27:00,
2013-12-23 20:32:00,34.9,29.7,30.49,NNE,31,3.0,3.0,81,0.00,,,0.00,WeatherCatV1.15B25,2013-12-24 02:32:00,
2013-12-23 20:37:00,35.1,29.6,30.49,NE,44,3.0,4.0,80,0.00,,,0.00,WeatherCatV1.15B25,2013-12-24 02:37:00,
2013-12-23 20:42:00,35.2,29.7,30.49,NE,45,3.0,4.0,80,0.00,,,0.00,WeatherCatV1.15B25,2013-12-24 02:42:00,
2013-12-23 20:47:00,35.2,29.4,30.49,NNE,32,1.0,3.0,79,0.00,,,0.00,WeatherCatV1.15B25,2013-12-24 02:47:00,
2013-12-23 20:52:00,35.2,29.4,30.49,NNE,32,1.0,4.0,79,0.00,,,0.00,WeatherCatV1.15B25,2013-12-24 02:52:00,
2013-12-23 20:57:00,35.1,29.3,30.49,NE,35,1.0,4.0,79,0.00,,,0.00,WeatherCatV1.15B25,2013-12-24 02:57:00,
2013-12-23 21:02:00,35.1,29.3,30.49,NE,51,1.0,2.0,79,0.00,,,0.00,WeatherCatV1.15B25,2013-12-24 03:02:00,
2013-12-23 21:07:00,35.0,29.2,30.49,NNE,30,1.0,3.0,79,0.00,,,0.00,WeatherCatV1.15B25,2013-12-24 03:07:00,
2013-12-23 21:12:00,35.1,29.3,30.49,NNE,32,1.0,2.0,79,0.00,,,0.00,WeatherCatV1.15B25,2013-12-24 03:12:00,
2013-12-23 21:17:00,35.0,29.2,30.49,NNE,33,1.0,2.0,79,0.00,,,0.00,WeatherCatV1.15B25,2013-12-24 03:17:00,
2013-12-23 21:22:00,34.9,29.1,30.49,NE,41,2.0,2.0,79,0.00,,,0.00,WeatherCatV1.15B25,2013-12-24 03:22:00,
2013-12-23 21:27:00,34.8,29.3,30.49,NNE,30,2.0,2.0,80,0.00,,,0.00,WeatherCatV1.15B25,2013-12-24 03:27:00,
2013-12-23 21:32:00,34.7,29.2,30.50,NE,44,2.0,4.0,80,0.00,,,0.00,WeatherCatV1.15B25,2013-12-24 03:32:00,
2013-12-23 21:37:00,34.6,29.1,30.50,NE,34,3.0,4.0,80,0.00,,,0.00,WeatherCatV1.15B25,2013-12-24 03:37:00,
2013-12-23 21:42:00,34.5,29.0,30.50,NE,37,3.0,5.0,80,0.00,,,0.00,WeatherCatV1.15B25,2013-12-24 03:42:00,
2013-12-23 21:47:00,34.5,29.0,30.49,NNE,30,1.0,3.0,80,0.00,,,0.00,WeatherCatV1.15B25,2013-12-24 03:47:00,
2013-12-23 21:52:00,34.5,29.0,30.49,NE,49,2.0,3.0,80,0.00,,,0.00,WeatherCatV1.15B25,2013-12-24 03:52:00,
2013-12-23 21:57:00,34.4,28.9,30.49,NNE,32,2.0,5.0,80,0.00,,,0.00,WeatherCatV1.15B25,2013-12-24 03:57:00,
2013-12-23 22:02:00,34.4,28.9,30.50,NNE,23,2.0,3.0,80,0.00,,,0.00,WeatherCatV1.15B25,2013-12-24 04:02:00,
2013-12-23 22:07:00,34.3,28.8,30.50,NNE,23,1.0,2.0,80,0.00,,,0.00,WeatherCatV1.15B25,2013-12-24 04:07:00,
2013-12-23 22:12:00,34.3,28.8,30.50,NNW,330,3.0,4.0,80,0.00,,,0.00,WeatherCatV1.15B25,2013-12-24 04:12:00,
2013-12-23 22:17:00,34.1,28.9,30.50,NE,44,2.0,4.0,81,0.00,,,0.00,WeatherCatV1.15B25,2013-12-24 04:17:00,
2013-12-23 22:22:00,34.0,28.8,30.50,NNE,32,2.0,4.0,81,0.00,,,0.00,WeatherCatV1.15B25,2013-12-24 04:22:00,
2013-12-23 22:27:00,33.8,28.6,30.50,NNE,26,2.0,4.0,81,0.00,,,0.00,WeatherCatV1.15B25,2013-12-24 04:27:00,
2013-12-23 22:32:00,33.7,28.5,30.50,NNE,33,4.0,4.0,81,0.00,,,0.00,WeatherCatV1.15B25,2013-12-24 04:32:00,
2013-12-23 22:37:00,33.7,28.8,30.50,NNE,21,2.0,4.0,82,0.00,,,0.00,WeatherCatV1.15B25,2013-12-24 04:37:00,
2013-12-23 22:42:00,33.6,28.7,30.50,NNE,32,1.0,2.0,82,0.00,,,0.00,WeatherCatV1.15B25,2013-12-24 04:42:00,
2013-12-23 22:47:00,33.4,28.5,30.50,NE,42,3.0,3.0,82,0.00,,,0.00,WeatherCatV1.15B25,2013-12-24 04:47:00,
2013-12-23 22:52:00,33.2,28.3,30.50,NNE,21,1.0,3.0,82,0.00,,,0.00,WeatherCatV1.15B25,2013-12-24 04:52:00,
2013-12-23 22:57:00,32.9,28.3,30.50,NNE,28,2.0,3.0,83,0.00,,,0.00,WeatherCatV1.15B25,2013-12-24 04:57:00,
2013-12-23 23:01:00,32.8,28.2,30.50,NE,46,2.0,5.0,83,0.00,,,0.00,WeatherCatV1.15B25,2013-12-24 05:01:00,
2013-12-23 23:06:00,32.6,28.0,30.50,NE,35,2.0,6.0,83,0.00,,,0.00,WeatherCatV1.15B25,2013-12-24 05:06:00,
2013-12-23 23:11:00,32.6,28.0,30.50,NNE,30,3.0,4.0,83,0.00,,,0.00,WeatherCatV1.15B25,2013-12-24 05:11:00,
2013-12-23 23:16:00,32.5,28.2,30.50,NNE,18,4.0,5.0,84,0.00,,,0.00,WeatherCatV1.15B25,2013-12-24 05:16:00,
2013-12-23 23:21:00,32.4,28.1,30.50,NE,44,2.0,3.0,84,0.00,,,0.00,WeatherCatV1.15B25,2013-12-24 05:21:00,
2013-12-23 23:26:00,32.3,28.0,30.50,North,5,5.0,9.0,84,0.00,,,0.00,WeatherCatV1.15B25,2013-12-24 05:26:00,
2013-12-23 23:31:00,32.3,28.0,30.50,NE,42,5.0,7.0,84,0.00,,,0.00,WeatherCatV1.15B25,2013-12-24 05:31:00,
2013-12-23 23:36:00,32.2,27.6,30.50,North,11,4.0,7.0,83,0.00,,,0.00,WeatherCatV1.15B25,2013-12-24 05:36:00,
2013-12-23 23:41:00,32.2,27.6,30.50,NE,44,4.0,7.0,83,0.00,,,0.00,WeatherCatV1.15B25,2013-12-24 05:41:00,
2013-12-23 23:46:00,32.0,27.4,30.50,NNE,30,5.0,5.0,83,0.00,,,0.00,WeatherCatV1.15B25,2013-12-24 05:46:00,
2013-12-23 23:51:00,31.9,27.6,30.50,NE,42,2.0,4.0,84,0.00,,,0.00,WeatherCatV1.15B25,2013-12-24 05:51:00,
2013-12-23 23:56:00,31.8,27.5,30.50,NE,38,2.0,4.0,84,0.00,,,0.00,WeatherCatV1.15B25,2013-12-24 05:56:00,